Flag for Thailand Weather past 2 weeks in Udon Thani, Thailand

Now
90 °F

Clear.


Feels Like: 88 °F
Forecast: 66 / 91 °F
Wind: 5 mph from North

Location: Udon Thani Airport

Current Time: Jan 28, 2015 at 2:36:46 PM

Latest Report: Jan 28, 2015 at 2:00 PM


Visibility: 5 mi

Pressure: 29.83 "Hg

Humidity: 33%

Dew point: 57 °F

Location of Udon ThaniLocation

Historic Weather in Udon Thani — Graph

°F

Udon Thani temperature yesterday

Maximum temperature yesterday: 91 °F (at 4:00 PM)
Minimum temperature yesterday: 61 °F (at 6:00 AM)
Average temperature yesterday: 79 °F

Past Weeks' High & Low Weather Summary

 TemperatureHumidityPressure
High91 °F (Jan 27, 4:00 PM)100% (Jan 16, 8:00 AM)30.18 "Hg (Jan 16, 8:00 AM)
Low48 °F (Jan 14, 6:00 AM)26% (Jan 14, 3:00 PM)29.80 "Hg (Jan 27, 4:00 PM)
Average73 °F54%30.02 "Hg
* Reported Jan 13 1:00 PM — Jan 28 1:00 PM, Udon Thani, Weather by CustomWeather, © 2014

Note: Actual official high and low records may vary slightly from our data, if they occured in-between our weather recording intervals... More about our weather records

Advertising

Udon Thani weather history for previous 24 hours

 ConditionsComfort  
Time TempWeatherWind HumidityBarometerVisibility
1:00 PM
Jan 28
88 °FClear.5 mph35%29.86 "Hg6 mi
12:00 PM84 °FClear.5 mph43%29.92 "Hg6 mi
11:00 AM82 °FClear.5 mph45%29.95 "Hg5 mi
10:00 AM79 °FClear.2 mph51%29.95 "Hg4 mi
9:00 AM73 °FFog.2 mph65%29.95 "Hg2 mi
8:00 AM66 °FFog.No wind88%29.92 "Hg2 mi
7:00 AM63 °FFog.2 mph83%29.92 "Hg2 mi
6:00 AM61 °FFog.No wind88%29.89 "Hg2 mi
9:00 PM
Jan 27
72 °FClear.1 mph65%29.89 "Hg4 mi
8:00 PM75 °FClear.2 mph54%29.86 "Hg4 mi
7:00 PM75 °FClear.3 mph54%29.83 "Hg4 mi
6:00 PM86 °FClear.3 mph38%29.83 "Hg4 mi
5:00 PM90 °FClear.6 mph33%29.83 "Hg5 mi
4:00 PM91 °FClear.3 mph32%29.80 "Hg5 mi
3:00 PM90 °FClear.5 mph33%29.83 "Hg6 mi
2:00 PM90 °FClear.6 mph36%29.86 "Hg6 mi
Weather by CustomWeather, © 2014

See weather overviewHow to use our weather pages